Volver al catálogo

COSMOS 1091

ActivoMilitarPO
NORAD 11320·PAYLOAD·🇷🇺 Russia

Lanzado Apr 7, 1979 desde Plesetsk Cosmodrome

Loading…

Próximos Pases (próximas 24 horas)

TLE

ActualizadoSource: Space-Track

Época: Sep 14, 2026, 22:27 UTC

1 11320U 79028A   26257.93586374  .00000032  00000-0  17975-4 0  9998
2 11320  82.9198  66.6453 0029104 273.6462 240.7229 13.74927379379469

Sigue COSMOS 1091 en tiempo real con AllMySat

Download on the App Store